STARLINK-1841 (46729 NORAD) Tracking and Keplerian Element Data

This shows tracking and keplerian element data for the satellite.

Feedback or suggestion? Click here.




ElementValue
Catalog46729
NameSTARLINK-1841
Epoch Orbit686
Epoch Day333.08334491
Epoch Year2020
RAAN269.7039
Inclination53.0558
Eccentricity0.0008654
Argument of Perigee290.8341
Mean Anonmoly188.7191
Mean Motion15.62751047
Decay Rate-0.00045838
L11 46729U 20073BM 20333.08334491 -.00045838 00000-0 -49654-3 0 9994
L22 46729 53.0558 269.7039 0008654 290.8341 188.7191 15.62751047 6865

Live tracking and technical data element details for STARLINK-1841 (NORAD 46729). STARLINK-1841 can be tracked NOW for your location showing map with azimuth and elevation plus other details from your city location.

Track the satellite on the map from your city or location and see movement details for azimuth, elevation, latitude, longitude, range, height, and movement on the map or in text.







IsCatalogInMostPopularTable: catalog: 46729, numindb: 10
Update: records affected: 1



GetName: 46729 STARLINK-1841

Hit Count: updated at: Sun, 29 Nov 2020 10:15:12 GMT